IRIDIUM 94 [+]

Last updated on Fri Mar 02 2018 00:19:44 GMT+0000 (Coordinated Universal Time)

1 27374U 02005C 18060.67636681 .00000179 00000-0 52974-4 0 9996 2 27374 86.3991 148.1360 0008970 13.5375 159.5781 14.37793041852855
UTC large
Height (km)
Speed (km/s)
/
Latitude / Longitude
Inclination (degrees)
Orbital Period (minutes)
Azimuth
Elevation
Range (km)
Doppler Factor

Next 0 passes for location: London (51.5072 / 0.1276)

Sorry there are no passes over London.